Stations météo

réclame
Mon MeteoGroup
London/Heathrow Intl, Grande-Bretagne (3772): Température de l'air & dewpoint: 27.05.2020 05:00:00 - 02.06.2020 05:00:00 (BST)London/Heathrow Intl, Grande-Bretagne (3772): Vitesse du vent & gusts: 27.05.2020 05:00:00 - 02.06.2020 05:00:00 (BST)London/Heathrow Intl, Grande-Bretagne (3772): Direction du vent: 27.05.2020 05:00:00 - 02.06.2020 05:00:00 (BST)London/Heathrow Intl, Grande-Bretagne (3772): reduced air pressure: 27.05.2020 05:00:00 - 02.06.2020 05:00:00 (BST)London/Heathrow Intl, Grande-Bretagne (3772): visibility: 27.05.2020 05:00:00 - 02.06.2020 05:00:00 (BST)London/Heathrow Intl, Grande-Bretagne (3772): Ensoleillement: 27.05.2020 05:00:00 - 02.06.2020 05:00:00 (BST)London/Heathrow Intl, Grande-Bretagne (3772): Quantités de précipitations: 27.05.2020 05:00:00 - 02.06.2020 05:00:00 (BST)
Date & Time tt [°C] td [°C] ff [km/h] ff [knt] fx [km/h] fx [knt] dd ppp [hPa] vv [km] sd [min] rr [mm]
02.06.2020 05:00:00 12,5 8,9 5 3 - - N 1021,6 29 0 0,0
02.06.2020 04:00:00 13,3 8,5 9 5 - - N 1021,7 10 0 0,0
02.06.2020 03:00:00 14,5 8,1 9 5 - - NE 1021,8 10 0 0,0
02.06.2020 02:00:00 15,9 7,9 9 5 - - NE 1022,1 35 0 0,0
02.06.2020 01:00:00 16,8 8,2 8 4 - - ENE 1022,3 10 - 0,0
02.06.2020 00:00:00 17,3 8,6 5 3 - - - 1022,5 10 0 0,0
01.06.2020 23:00:00 17,4 8,7 13 7 - - E 1022,2 10 0 0,0
01.06.2020 22:00:00 19,3 8,4 15 8 - - ESE 1021,9 10 0 0,0
01.06.2020 21:00:00 21,3 7,8 15 8 - - E 1021,2 40 12 0,0
01.06.2020 20:00:00 23,2 6,0 11 6 - - E 1020,9 10 54 0,0
01.06.2020 19:00:00 24,3 5,4 11 6 - - NE 1020,9 10 60 0,0
01.06.2020 18:00:00 25,0 5,9 16 9 - - E 1020,9 45 60 0,0
01.06.2020 17:00:00 25,7 6,2 16 9 - - E 1021,1 10 60 0,0
01.06.2020 16:00:00 25,4 6,1 18 10 - - E 1021,3 10 54 0,0
01.06.2020 15:00:00 25,9 6,7 15 8 - - E 1021,6 10 60 0,0
01.06.2020 14:00:00 24,9 6,7 11 6 - - ENE 1022,0 35 60 0,0
01.06.2020 13:00:00 23,7 6,5 15 8 - - ENE 1022,3 10 60 0,0
01.06.2020 12:00:00 23,5 8,4 16 9 - - ENE 1022,7 10 60 0,0
01.06.2020 11:00:00 22,0 9,5 15 8 - - NE 1022,9 10 60 0,0
01.06.2020 10:00:00 19,2 10,1 9 5 - - N 1023,2 10 60 0,0
01.06.2020 09:00:00 17,1 9,8 9 5 - - NE 1023,4 30 60 0,0
01.06.2020 08:00:00 15,5 9,8 13 7 - - NE 1023,4 10 60 0,0
01.06.2020 07:00:00 13,2 8,6 13 7 - - NE 1023,3 10 36 0,0
01.06.2020 06:00:00 11,7 8,1 5 3 - - NNE 1023,2 30 0 0,0
01.06.2020 05:00:00 11,7 7,8 9 5 - - NE 1023,1 10 0 0,0
01.06.2020 04:00:00 12,1 7,7 9 5 - - NE 1023,2 10 0 0,0
01.06.2020 03:00:00 12,7 7,4 11 6 - - NE 1023,3 40 0 0,0
01.06.2020 02:00:00 13,4 6,8 9 5 - - NE 1023,3 10 0 0,0
01.06.2020 01:00:00 14,3 6,1 9 5 - - NE 1023,5 10 - 0,0
01.06.2020 00:00:00 15,3 5,9 11 6 - - ENE 1023,6 10 0 0,0
31.05.2020 23:00:00 16,3 5,9 16 9 - - ENE 1023,5 10 0 0,0
31.05.2020 22:00:00 16,9 5,6 13 7 - - ENE 1023,4 10 0 0,0
31.05.2020 21:00:00 17,7 4,9 16 9 - - ENE 1023,1 10 12 0,0
31.05.2020 20:00:00 19,2 4,8 24 13 - - E 1022,7 10 60 0,0
31.05.2020 19:00:00 20,6 5,1 26 14 - - E 1022,3 10 60 0,0
31.05.2020 18:00:00 22,0 4,4 24 13 - - E 1022,0 10 60 0,0
31.05.2020 17:00:00 23,2 3,4 26 14 48 26 E 1022,1 10 60 0,0
31.05.2020 16:00:00 24,5 3,9 26 14 - - E 1022,1 10 60 0,0
31.05.2020 15:00:00 24,5 4,2 26 14 46 25 E 1022,0 10 60 0,0
31.05.2020 14:00:00 24,6 3,0 29 16 48 26 ESE 1022,4 10 60 0,0
31.05.2020 13:00:00 23,9 2,7 28 15 46 25 E 1022,5 10 60 0,0
31.05.2020 12:00:00 24,7 2,8 29 16 - - E 1022,4 40 60 0,0
31.05.2020 11:00:00 24,0 5,9 21 11 - - E 1022,4 10 60 0,0
31.05.2020 10:00:00 21,6 8,3 13 7 - - ENE 1022,4 10 60 0,0
31.05.2020 09:00:00 18,5 9,3 13 7 - - ENE 1022,6 28 60 0,0
31.05.2020 08:00:00 16,3 9,3 15 8 - - ENE 1022,5 10 60 0,0
31.05.2020 07:00:00 14,3 8,2 9 5 - - NE 1022,5 10 36 0,0
31.05.2020 06:00:00 12,8 7,1 8 4 - - NE 1022,2 10 0 0,0
31.05.2020 05:00:00 12,5 6,1 8 4 - - NE 1021,8 29 0 0,0
31.05.2020 04:00:00 13,3 6,0 9 5 - - NNE 1021,8 30 0 0,0
31.05.2020 03:00:00 14,0 6,3 9 5 - - NE 1022,2 10 0 0,0
31.05.2020 02:00:00 14,6 6,3 11 6 - - NE 1022,4 30 0 0,0
31.05.2020 01:00:00 15,2 6,2 15 8 - - ENE 1022,6 10 - 0,0
31.05.2020 00:00:00 15,9 6,0 15 8 - - ENE 1022,7 10 0 0,0
30.05.2020 23:00:00 16,6 5,2 11 6 - - ENE 1022,5 10 0 0,0
30.05.2020 22:00:00 16,9 4,5 15 8 - - E 1022,3 10 0 0,0
30.05.2020 21:00:00 18,8 4,2 16 9 - - E 1021,7 35 6 0,0
30.05.2020 20:00:00 20,4 3,7 22 12 - - E 1021,3 10 60 0,0
30.05.2020 19:00:00 22,0 3,3 26 14 - - ESE 1021,1 10 60 0,0
30.05.2020 18:00:00 23,3 2,8 22 12 - - E 1021,2 10 60 0,0
30.05.2020 17:00:00 24,2 2,0 21 11 - - ENE 1021,5 10 60 0,0
30.05.2020 16:00:00 24,8 3,4 24 13 - - ESE 1021,7 10 60 0,0
30.05.2020 15:00:00 25,2 2,4 22 12 - - ESE 1021,9 10 60 0,0
30.05.2020 14:00:00 24,7 3,0 21 11 - - E 1022,2 10 60 0,0
30.05.2020 13:00:00 24,3 5,4 15 8 - - E 1022,7 30 60 0,0
30.05.2020 12:00:00 23,3 4,9 18 10 - - E 1023,2 10 60 0,0
30.05.2020 11:00:00 20,8 9,6 11 6 - - ENE 1023,6 10 60 0,0
30.05.2020 10:00:00 19,2 10,2 11 6 - - E 1023,9 10 60 0,0
30.05.2020 09:00:00 16,9 10,2 13 7 - - E 1024,1 10 60 0,0
30.05.2020 08:00:00 14,3 9,8 11 6 - - ENE 1024,2 18 54 0,0
30.05.2020 07:00:00 11,8 8,5 8 4 - - ENE 1024,3 10 18 0,0
30.05.2020 06:00:00 10,4 7,9 9 5 - - NE 1024,4 10 0 0,0
30.05.2020 05:00:00 10,0 7,1 8 4 - - NE 1024,4 10 0 0,0
30.05.2020 04:00:00 10,5 6,8 8 4 - - NE 1024,6 10 0 0,0
30.05.2020 03:00:00 11,0 6,5 9 5 - - NE 1024,8 10 0 0,0
30.05.2020 02:00:00 11,9 6,3 11 6 - - ENE 1025,1 10 0 0,0
30.05.2020 01:00:00 12,6 3,4 11 6 - - ENE 1025,3 10 - 0,0
30.05.2020 00:00:00 13,4 0,0 13 7 - - ENE 1025,4 10 0 0,0
29.05.2020 23:00:00 14,6 0,1 9 5 - - E 1025,4 10 0 0,0
29.05.2020 22:00:00 15,5 -4,3 9 5 - - ENE 1025,4 10 0 0,0
29.05.2020 21:00:00 17,3 -3,3 13 7 - - E 1024,8 10 12 0,0
29.05.2020 20:00:00 18,8 2,2 18 10 - - E 1024,8 10 60 0,0
29.05.2020 19:00:00 20,4 3,7 21 11 - - E 1024,9 10 60 0,0
29.05.2020 18:00:00 22,1 1,6 18 10 - - E 1025,1 10 60 0,0
29.05.2020 17:00:00 22,7 3,3 21 11 - - E 1025,5 10 60 0,0
29.05.2020 16:00:00 23,5 1,4 18 10 - - E 1025,7 10 54 0,0
29.05.2020 15:00:00 24,3 0,3 18 10 - - E 1026,3 45 60 0,0
29.05.2020 14:00:00 23,5 -1,0 18 10 - - E 1026,8 10 54 0,0
29.05.2020 13:00:00 23,1 1,4 21 11 - - ESE 1027,5 10 60 0,0
29.05.2020 12:00:00 22,1 3,3 18 10 - - E 1028,3 45 60 0,0
29.05.2020 11:00:00 21,4 7,0 13 7 - - E 1028,7 10 60 0,0
29.05.2020 10:00:00 19,7 8,0 15 8 - - ESE 1029,0 10 60 0,0
29.05.2020 09:00:00 17,9 8,8 15 8 - - E 1029,1 10 60 0,0
29.05.2020 08:00:00 16,2 9,5 11 6 - - ENE 1029,2 25 60 0,0
29.05.2020 07:00:00 13,9 8,8 11 6 - - ENE 1029,4 23 36 0,0
29.05.2020 06:00:00 11,9 7,9 9 5 - - ENE 1029,6 10 0 0,0
29.05.2020 05:00:00 11,2 7,0 8 4 - - ENE 1029,6 10 0 0,0
29.05.2020 04:00:00 11,5 6,6 5 3 - - - 1030,0 10 0 0,0
29.05.2020 03:00:00 12,2 6,3 11 6 - - ENE 1030,2 10 0 0,0
29.05.2020 02:00:00 12,7 6,1 11 6 - - ENE 1030,6 20 0 0,0
29.05.2020 01:00:00 13,2 6,2 13 7 - - ENE 1030,7 10 - 0,0
29.05.2020 00:00:00 13,6 6,2 13 7 - - ENE 1031,1 10 0 0,0
28.05.2020 23:00:00 14,3 4,7 11 6 - - E 1031,3 10 0 0,0
28.05.2020 22:00:00 15,4 2,4 11 6 - - ENE 1031,4 10 0 0,0
28.05.2020 21:00:00 16,1 1,7 22 12 - - E 1031,3 10 0 0,0
28.05.2020 20:00:00 17,9 1,5 18 10 - - E 1031,3 45 60 0,0
28.05.2020 19:00:00 19,3 2,9 24 13 - - E 1031,2 45 60 0,0
28.05.2020 18:00:00 20,3 2,9 26 14 - - E 1031,5 45 60 0,0
28.05.2020 17:00:00 20,9 -0,1 22 12 - - E 1031,8 10 60 0,0
28.05.2020 16:00:00 21,5 0,2 21 11 - - E 1032,2 10 60 0,0
28.05.2020 15:00:00 22,1 1,5 21 11 - - E 1032,8 10 60 0,0
28.05.2020 14:00:00 21,6 2,7 21 11 - - ENE 1033,2 10 60 0,0
28.05.2020 13:00:00 21,4 3,2 16 9 - - E 1033,7 10 60 0,0
28.05.2020 12:00:00 20,3 2,5 18 10 - - E 1034,1 10 60 0,0
28.05.2020 11:00:00 19,8 5,2 16 9 - - E 1034,6 35 60 0,0
28.05.2020 10:00:00 17,7 7,8 16 9 - - E 1035,3 10 60 0,0
28.05.2020 09:00:00 15,6 9,4 11 6 - - ENE 1035,8 25 54 0,0
28.05.2020 08:00:00 14,3 9,4 13 7 - - ENE 1036,1 10 60 0,0
28.05.2020 07:00:00 12,9 9,0 11 6 - - ENE 1036,1 10 30 0,0
28.05.2020 06:00:00 11,8 9,0 11 6 - - ENE 1035,9 10 0 0,0
28.05.2020 05:00:00 11,8 8,9 8 4 - - ENE 1035,7 10 0 0,0
28.05.2020 04:00:00 12,9 7,6 11 6 - - ENE 1035,7 10 0 0,0
28.05.2020 03:00:00 13,4 8,2 9 5 - - ENE 1035,6 40 0 0,0
28.05.2020 02:00:00 14,0 8,9 11 6 - - E 1035,6 10 0 0,0
28.05.2020 01:00:00 14,9 9,0 13 7 - - E 1035,8 10 - 0,0
28.05.2020 00:00:00 15,3 8,5 13 7 - - E 1035,9 45 0 0,0
27.05.2020 23:00:00 16,6 8,8 18 10 - - E 1035,8 10 0 0,0
27.05.2020 22:00:00 19,5 9,6 16 9 - - ENE 1035,2 10 0 0,0
27.05.2020 21:00:00 21,4 11,1 13 7 - - SSE 1034,1 10 0 0,0
27.05.2020 20:00:00 23,5 10,5 13 7 - - NNE 1033,6 40 54 0,0
27.05.2020 19:00:00 24,7 10,4 13 7 - - NE 1033,4 10 60 0,0
27.05.2020 18:00:00 24,9 9,3 5 3 - - - 1033,5 10 60 0,0
27.05.2020 17:00:00 24,7 10,2 11 6 - - NE 1033,7 10 60 0,0
27.05.2020 16:00:00 26,3 11,3 8 4 - - NNE 1034,1 10 36 0,0
27.05.2020 15:00:00 24,8 10,1 8 4 - - WNW 1034,3 10 30 0,0
27.05.2020 14:00:00 23,8 10,3 8 4 - - NNE 1034,7 10 6 0,0
27.05.2020 13:00:00 23,7 10,3 5 3 - - - 1035,2 10 0 0,0
27.05.2020 12:00:00 22,7 9,6 9 5 - - N 1035,4 30 48 0,0
27.05.2020 11:00:00 23,3 10,5 5 3 - - - 1035,8 10 60 0,0
27.05.2020 10:00:00 20,6 9,9 4 2 - - - 1036,0 10 60 0,0
27.05.2020 09:00:00 19,2 9,7 5 3 - - - 1036,0 10 48 0,0
27.05.2020 08:00:00 17,9 9,2 4 2 - - - 1036,1 10 24 0,0
27.05.2020 07:00:00 15,8 8,9 4 2 - - - 1035,9 10 0 0,0
27.05.2020 06:00:00 14,8 8,8 4 2 - - - 1035,8 10 0 0,0
27.05.2020 05:00:00 14,4 8,2 5 3 - - - 1035,8 10 0 0,0

tt = Température de l'air
td = dewpoint
ff = Vitesse du vent
fx = gusts
dd = Direction du vent
ppp = reduced air pressure
vv = visibility
sd = Ensoleillement
rr = Quantités de précipitations

stations d'obs. à proximité